• In Switzerland
  • List of Countries
  • For 7 days
  • Water Temperature
  • Satellite Maps
  • Weather Map
  • Weather Widgets
  • user-avatar
    Login

    Hourly Weather Serby

    Today, 23 April, Monday

    Time Temperature Precipitation Wind Pressure Humidity
    00:00 +10°C° 0 mm 2 mps 740 mmHg 65%
    01:00 +10°C° 0 mm 1 mps 740 mmHg 67%
    02:00 +10°C° 0 mm 1 mps 740 mmHg 68%
    03:00 +9°C° 0 mm 1 mps 741 mmHg 70%
    04:00 +9°C° 0 mm 1 mps 741 mmHg 71%
    05:00 +8°C° 0 mm 1 mps 741 mmHg 72%
    06:00 +10°C° 0 mm 1 mps 741 mmHg 67%
    07:00 +11°C° 0 mm 1 mps 741 mmHg 61%
    08:00 +13°C° 0 mm 1 mps 742 mmHg 56%
    09:00 +15°C° 0 mm 1 mps 742 mmHg 50%
    10:00 +16°C° 0 mm 1 mps 742 mmHg 45%
    11:00 +19°C° 0 mm 1 mps 742 mmHg 40%
    12:00 +19°C° 0 mm 1 mps 742 mmHg 38%
    13:00 +20°C° 0 mm 1 mps 741 mmHg 36%
    14:00 +20°C° 0 mm 1 mps 741 mmHg 34%
    15:00 +20°C° 0 mm 1 mps 741 mmHg 34%
    16:00 +20°C° 0 mm 1 mps 741 mmHg 35%
    17:00 +20°C° 0 mm 1 mps 741 mmHg 35%
    18:00 +18°C° 0 mm 1 mps 740 mmHg 40%
    19:00 +15°C° 0 mm 2 mps 740 mmHg 46%
    20:00 +14°C° 0 mm 2 mps 740 mmHg 52%
    21:00 +13°C° 0 mm 2 mps 740 mmHg 54%
    22:00 +11°C° 0 mm 3 mps 740 mmHg 56%
    23:00 +11°C° 0 mm 3 mps 740 mmHg 58%

    Tomorrow, 24 April, Tuesday

    Time Temperature Precipitation Wind Pressure Humidity
    00:00 +11°C° 0 mm 3 mps 740 mmHg 58%
    01:00 +11°C° 0 mm 4 mps 739 mmHg 58%
    02:00 +12°C° 0 mm 4 mps 739 mmHg 57%
    03:00 +12°C° 0.1 mm 4 mps 739 mmHg 61%
    04:00 +12°C° 0.1 mm 4 mps 738 mmHg 65%
    05:00 +12°C° 0.1 mm 4 mps 738 mmHg 68%
    06:00 +13°C° 0.2 mm 4 mps 738 mmHg 72%
    07:00 +14°C° 0.2 mm 5 mps 738 mmHg 76%
    08:00 +15°C° 0.2 mm 5 mps 738 mmHg 80%
    09:00 +15°C° 0 mm 6 mps 738 mmHg 77%
    10:00 +16°C° 0 mm 6 mps 738 mmHg 74%
    11:00 +16°C° 0 mm 6 mps 738 mmHg 71%
    12:00 +17°C° 0 mm 6 mps 739 mmHg 63%
    13:00 +19°C° 0 mm 6 mps 739 mmHg 54%
    14:00 +20°C° 0 mm 7 mps 739 mmHg 46%
    15:00 +19°C° 0 mm 6 mps 739 mmHg 46%
    16:00 +19°C° 0 mm 6 mps 739 mmHg 46%
    17:00 +17°C° 0 mm 5 mps 739 mmHg 45%
    18:00 +17°C° 0 mm 4 mps 739 mmHg 52%
    19:00 +14°C° 0 mm 3 mps 740 mmHg 59%
    20:00 +13°C° 0 mm 2 mps 740 mmHg 65%
    21:00 +13°C° 0 mm 2 mps 740 mmHg 69%
    22:00 +12°C° 0 mm 2 mps 740 mmHg 72%
    23:00 +12°C° 0 mm 2 mps 741 mmHg 75%

    Day after tomorrow, 25 April, Wednesday

    Time Temperature Precipitation Wind Pressure Humidity
    00:00 +10°C° 0 mm 2 mps 740 mmHg 77%
    01:00 +10°C° 0 mm 2 mps 740 mmHg 79%
    02:00 +10°C° 0 mm 2 mps 740 mmHg 81%
    03:00 +10°C° 0 mm 3 mps 740 mmHg 82%
    04:00 +10°C° 0 mm 3 mps 740 mmHg 83%
    05:00 +10°C° 0 mm 3 mps 740 mmHg 84%
    06:00 +12°C° 0 mm 4 mps 740 mmHg 78%
    07:00 +13°C° 0 mm 4 mps 740 mmHg 71%
    08:00 +15°C° 0 mm 5 mps 740 mmHg 65%
    09:00 +17°C° 0 mm 5 mps 740 mmHg 60%
    10:00 +19°C° 0 mm 5 mps 740 mmHg 55%
    11:00 +21°C° 0 mm 6 mps 740 mmHg 49%
    12:00 +22°C° 0 mm 6 mps 740 mmHg 48%
    13:00 +22°C° 0 mm 6 mps 739 mmHg 46%
    14:00 +23°C° 0 mm 6 mps 739 mmHg 45%
    15:00 +23°C° 0 mm 5 mps 739 mmHg 46%
    16:00 +23°C° 0 mm 5 mps 738 mmHg 48%
    17:00 +22°C° 0 mm 4 mps 738 mmHg 49%
    18:00 +21°C° 0 mm 4 mps 738 mmHg 56%
    19:00 +19°C° 0 mm 3 mps 737 mmHg 62%
    20:00 +17°C° 0 mm 3 mps 737 mmHg 68%
    21:00 +17°C° 0.1 mm 3 mps 737 mmHg 71%
    22:00 +17°C° 0.1 mm 4 mps 737 mmHg 74%
    23:00 +15°C° 0.1 mm 4 mps 737 mmHg 77%

    26 April, Thursday

    Time Temperature Precipitation Wind Pressure Humidity
    00:00 +15°C° 0 mm 4 mps 737 mmHg 79%
    01:00 +15°C° 0 mm 4 mps 737 mmHg 81%
    02:00 +14°C° 0 mm 4 mps 737 mmHg 84%
    03:00 +13°C° 0 mm 4 mps 737 mmHg 86%
    04:00 +13°C° 0 mm 4 mps 737 mmHg 89%
    05:00 +12°C° 0 mm 3 mps 737 mmHg 92%
    06:00 +13°C° 0 mm 4 mps 738 mmHg 87%
    07:00 +13°C° 0 mm 5 mps 739 mmHg 81%
    08:00 +14°C° 0 mm 6 mps 739 mmHg 76%
    09:00 +14°C° 0 mm 6 mps 740 mmHg 69%
    10:00 +15°C° 0 mm 5 mps 740 mmHg 62%
    11:00 +15°C° 0 mm 5 mps 741 mmHg 55%
    12:00 +16°C° 0 mm 5 mps 741 mmHg 49%
    13:00 +18°C° 0 mm 4 mps 741 mmHg 44%
    14:00 +19°C° 0 mm 4 mps 741 mmHg 39%
    15:00 +19°C° 0 mm 3 mps 741 mmHg 38%
    16:00 +18°C° 0 mm 3 mps 741 mmHg 38%
    17:00 +18°C° 0 mm 3 mps 741 mmHg 38%
    18:00 +17°C° 0 mm 2 mps 741 mmHg 44%
    19:00 +15°C° 0 mm 2 mps 741 mmHg 49%
    20:00 +13°C° 0 mm 1 mps 741 mmHg 55%
    21:00 +13°C° 0 mm 1 mps 741 mmHg 57%
    22:00 +12°C° 0 mm 1 mps 741 mmHg 59%
    23:00 +12°C° 0 mm 1 mps 741 mmHg 61%

    27 April, Friday

    Time Temperature Precipitation Wind Pressure Humidity
    00:00 +12°C° 0 mm 1 mps 741 mmHg 61%
    01:00 +12°C° 0 mm 1 mps 741 mmHg 61%
    02:00 +12°C° 0 mm 1 mps 741 mmHg 61%
    03:00 +12°C° 1.3 mm 2 mps 741 mmHg 68%
    04:00 +10°C° 1.3 mm 2 mps 741 mmHg 76%
    05:00 +10°C° 1.3 mm 2 mps 740 mmHg 83%
    06:00 +10°C° 1.7 mm 2 mps 740 mmHg 86%
    07:00 +10°C° 1.7 mm 2 mps 740 mmHg 88%
    08:00 +10°C° 1.7 mm 2 mps 740 mmHg 91%
    09:00 +10°C° 0.8 mm 2 mps 740 mmHg 90%
    10:00 +12°C° 0.8 mm 2 mps 740 mmHg 89%
    11:00 +12°C° 0.8 mm 1 mps 740 mmHg 89%
    12:00 +13°C° 0.1 mm 2 mps 740 mmHg 83%
    13:00 +14°C° 0.1 mm 3 mps 740 mmHg 78%
    14:00 +16°C° 0.1 mm 3 mps 740 mmHg 72%
    15:00 +17°C° 0 mm 4 mps 740 mmHg 67%
    16:00 +17°C° 0 mm 4 mps 741 mmHg 62%
    17:00 +18°C° 0 mm 4 mps 741 mmHg 57%
    18:00 +16°C° 0 mm 3 mps 741 mmHg 61%
    19:00 +13°C° 0 mm 3 mps 742 mmHg 65%
    20:00 +11°C° 0 mm 3 mps 742 mmHg 69%
    21:00 +10°C° 0 mm 2 mps 743 mmHg 70%
    22:00 +9°C° 0 mm 2 mps 743 mmHg 71%
    23:00 +8°C° 0 mm 2 mps 744 mmHg 72%

    28 April, Saturday

    Time Temperature Precipitation Wind Pressure Humidity
    00:00 +8°C° 0 mm 2 mps 744 mmHg 73%
    01:00 +8°C° 0 mm 1 mps 744 mmHg 75%
    02:00 +8°C° 0 mm 1 mps 744 mmHg 76%
    03:00 +7°C° 0 mm 1 mps 744 mmHg 77%
    04:00 +7°C° 0 mm 1 mps 745 mmHg 78%
    05:00 +7°C° 0 mm 1 mps 745 mmHg 79%
    06:00 +8°C° 0 mm 1 mps 745 mmHg 73%
    07:00 +9°C° 0 mm 2 mps 745 mmHg 67%
    08:00 +12°C° 0 mm 2 mps 746 mmHg 62%
    09:00 +14°C° 0 mm 2 mps 746 mmHg 56%
    10:00 +15°C° 0 mm 2 mps 746 mmHg 51%
    11:00 +17°C° 0 mm 2 mps 746 mmHg 45%
    12:00 +17°C° 0 mm 2 mps 746 mmHg 43%
    13:00 +19°C° 0 mm 1 mps 745 mmHg 41%
    14:00 +20°C° 0 mm 1 mps 745 mmHg 39%
    15:00 +19°C° 0 mm 2 mps 745 mmHg 41%
    16:00 +19°C° 0 mm 2 mps 745 mmHg 42%
    17:00 +19°C° 0 mm 2 mps 744 mmHg 44%
    18:00 +17°C° 0 mm 2 mps 744 mmHg 50%
    19:00 +15°C° 0 mm 2 mps 744 mmHg 56%
    20:00 +14°C° 0 mm 2 mps 745 mmHg 62%
    21:00 +13°C° 0 mm 2 mps 745 mmHg 63%
    22:00 +12°C° 0 mm 2 mps 745 mmHg 64%
    23:00 +11°C° 0 mm 3 mps 745 mmHg 66%
    Show more